QPF
0.14 0.17 0.21 0.26 0.25 0.22 0.21 0.21 0.20 0.16 0.09 0.04 0.02 0.01 0.00 0.01 0.01 0.01 0.03 0.02 0.03 0.06 0.06 0.03 0.02 0.01 0.01 0.02 0.03 0.02 0.03 0.04 0.04 0.05 0.06 0.05 0.04 0.02 0.02 0.03 0.01 0.00 0.01
0.09 0.11 0.12 0.14 0.15 0.17 0.22 0.27 0.25 0.21 0.15 0.08 0.03 0.01 0.01 0.00 0.00 0.00 0.01 0.01 0.01 0.02 0.04 0.03 0.02 0.01 0.01 0.02 0.02 0.03 0.03 0.03 0.03 0.04 0.05 0.05 0.04 0.02 0.02 0.01 0.01 0.01 0.02
0.05 0.08 0.08 0.10 0.11 0.13 0.16 0.21 0.23 0.22 0.16 0.08 0.04 0.02 0.01 0.00 0.00 0.00 0.00 0.01 0.01 0.01 0.02 0.02 0.02 0.02 0.02 0.02 0.02 0.03 0.03 0.02 0.02 0.03 0.04 0.04 0.05 0.03 0.01 0.01 0.01 0.01 0.01
0.02 0.03 0.05 0.08 0.10 0.10 0.11 0.14 0.18 0.20 0.18 0.13 0.08 0.04 0.02 0.02 0.01 0.00 0.00 0.00 0.01 0.02 0.03 0.01 0.01 0.01 0.02 0.02 0.02 0.03 0.03 0.02 0.02 0.02 0.03 0.03 0.04 0.03 0.02 0.01 0.01 0.01 0.01
0.01 0.02 0.03 0.06 0.08 0.09 0.09 0.09 0.12 0.14 0.16 0.16 0.15 0.11 0.06 0.04 0.04 0.01 0.00 0.00 0.00 0.01 0.02 0.02 0.01 0.01 0.01 0.02 0.03 0.03 0.03 0.02 0.01 0.01 0.02 0.02 0.02 0.02 0.02 0.02 0.01 0.01 0.01
0.01 0.01 0.02 0.03 0.05 0.07 0.07 0.08 0.12 0.13 0.12 0.14 0.18 0.15 0.10 0.05 0.03 0.02 0.01 0.00 0.00 0.00 0.00 0.01 0.01 0.01 0.00 0.01 0.02 0.03 0.03 0.03 0.02 0.02 0.02 0.01 0.01 0.01 0.02 0.01 0.01 0.01 0.01
0.01 0.01 0.01 0.01 0.02 0.04 0.06 0.08 0.11 0.13 0.13 0.13 0.15 0.14 0.11 0.07 0.04 0.02 0.01 0.01 0.00 0.01 0.01 0.02 0.02 0.01 0.00 0.00 0.01 0.02 0.04 0.04 0.03 0.03 0.03 0.02 0.01 0.01 0.01 0.01 0.01 0.01 0.01
0.01 0.01 0.01 0.01 0.01 0.02 0.03 0.05 0.07 0.08 0.12 0.17 0.17 0.18 0.15 0.10 0.06 0.03 0.02 0.02 0.01 0.02 0.02 0.01 0.01 0.00 0.00 0.00 0.00 0.00 0.02 0.04 0.05 0.04 0.04 0.03 0.02 0.01 0.01 0.01 0.01 0.01 0.01
0.01 0.01 0.01 0.01 0.02 0.02 0.02 0.04 0.06 0.06 0.07 0.11 0.18 0.22 0.17 0.12 0.09 0.05 0.04 0.03 0.03 0.04 0.02 0.01 0.00 0.00 0.00 0.00 0.01 0.00 0.00 0.02 0.04 0.05 0.05 0.05 0.03 0.01 0.01 0.01 0.01 0.01 0.01
0.01 0.01 0.01 0.02 0.02 0.03 0.03 0.03 0.05 0.06 0.07 0.08 0.11 0.17 0.16 0.14 0.16 0.13 0.06 0.04 0.04 0.06 0.05 0.02 0.00 0.00 0.00 0.00 0.00 0.00 0.00 0.00 0.02 0.04 0.06 0.05 0.03 0.01 0.01 0.01 0.01 0.01 0.01
0.01 0.01 0.01 0.02 0.03 0.03 0.04 0.04 0.05 0.06 0.07 0.07 0.08 0.12 0.12 0.12 0.12 0.14 0.13 0.09 0.06 0.06 0.05 0.04 0.03 0.02 0.01 0.01 0.00 0.00 0.00 0.00 0.01 0.02 0.05 0.06 0.05 0.03 0.02 0.01 0.01 0.01 0.01
0.01 0.01 0.01 0.01 0.02 0.02 0.03 0.04 0.05 0.05 0.07 0.08 0.08 0.10 0.13 0.13 0.12 0.13 0.13 0.11 0.11 0.09 0.08 0.07 0.05 0.05 0.03 0.01 0.01 0.01 0.00 0.00 0.01 0.01 0.03 0.05 0.07 0.06 0.04 0.02 0.01 0.01 0.01
0.01 0.02 0.01 0.01 0.02 0.02 0.02 0.02 0.04 0.04 0.05 0.07 0.08 0.09 0.12 0.14 0.14 0.16 0.18 0.16 0.13 0.10 0.08 0.08 0.07 0.06 0.05 0.02 0.01 0.02 0.01 0.01 0.01 0.01 0.01 0.02 0.04 0.05 0.05 0.04 0.02 0.02 0.01
0.01 0.02 0.02 0.02 0.02 0.01 0.01 0.02 0.03 0.04 0.04 0.05 0.06 0.08 0.10 0.12 0.15 0.15 0.16 0.17 0.16 0.12 0.08 0.06 0.05 0.06 0.06 0.04 0.05 0.04 0.02 0.01 0.01 0.01 0.01 0.01 0.02 0.02 0.03 0.03 0.03 0.03 0.02
0.01 0.01 0.01 0.01 0.01 0.02 0.02 0.03 0.04 0.04 0.05 0.06 0.07 0.09 0.10 0.10 0.13 0.14 0.16 0.18 0.19 0.17 0.11 0.06 0.05 0.05 0.07 0.07 0.09 0.05 0.03 0.03 0.03 0.02 0.02 0.02 0.01 0.01 0.01 0.01 0.02 0.01 0.01
0.00 0.00 0.00 0.01 0.01 0.01 0.02 0.02 0.03 0.04 0.06 0.07 0.10 0.11 0.11 0.12 0.12 0.14 0.15 0.16 0.19 0.19 0.18 0.14 0.09 0.07 0.08 0.09 0.12 0.06 0.05 0.08 0.05 0.04 0.04 0.03 0.02 0.02 0.02 0.02 0.01 0.01 0.00
0.00 0.00 0.00 0.00 0.01 0.01 0.01 0.02 0.03 0.04 0.04 0.06 0.08 0.08 0.10 0.10 0.12 0.14 0.15 0.15 0.16 0.18 0.19 0.18 0.15 0.12 0.10 0.09 0.09 0.08 0.09 0.09 0.07 0.06 0.05 0.04 0.04 0.03 0.02 0.02 0.01 0.01 0.00
0.00 0.00 0.00 0.00 0.03 0.03 0.02 0.02 0.03 0.04 0.05 0.06 0.07 0.09 0.11 0.12 0.13 0.13 0.14 0.15 0.17 0.19 0.19 0.18 0.17 0.15 0.13 0.12 0.12 0.11 0.11 0.11 0.11 0.12 0.10 0.07 0.05 0.04 0.03 0.01 0.01 0.01 0.00
0.00 0.00 0.00 0.00 0.01 0.03 0.02 0.02 0.02 0.03 0.05 0.06 0.06 0.08 0.11 0.12 0.13 0.15 0.15 0.14 0.16 0.20 0.23 0.24 0.21 0.19 0.18 0.17 0.17 0.16 0.15 0.15 0.17 0.19 0.19 0.13 0.10 0.07 0.05 0.03 0.02 0.01 0.01
0.00 0.00 0.00 0.00 0.00 0.01 0.02 0.02 0.02 0.02 0.04 0.05 0.06 0.07 0.10 0.11 0.13 0.16 0.17 0.17 0.17 0.20 0.20 0.23 0.23 0.22 0.20 0.22 0.24 0.23 0.20 0.19 0.21 0.21 0.22 0.20 0.17 0.13 0.09 0.06 0.04 0.02 0.01
0.00 0.00 0.00 0.00 0.00 0.00 0.01 0.01 0.02 0.03 0.02 0.03 0.05 0.08 0.10 0.11 0.13 0.15 0.15 0.16 0.17 0.19 0.20 0.20 0.20 0.21 0.22 0.24 0.26 0.25 0.24 0.23 0.23 0.23 0.25 0.25 0.20 0.15 0.11 0.08 0.06 0.04 0.03
0.00 0.00 0.00 0.00 0.00 0.00 0.01 0.01 0.02 0.04 0.02 0.03 0.04 0.06 0.10 0.14 0.15 0.16 0.17 0.18 0.17 0.17 0.19 0.20 0.19 0.18 0.18 0.19 0.22 0.26 0.27 0.29 0.32 0.26 0.23 0.27 0.24 0.20 0.15 0.11 0.09 0.06 0.04
0.00 0.00 0.00 0.00 0.00 0.01 0.02 0.02 0.01 0.04 0.03 0.03 0.03 0.05 0.09 0.13 0.15 0.19 0.15 0.17 0.17 0.18 0.19 0.22 0.20 0.17 0.17 0.17 0.20 0.24 0.25 0.24 0.25 0.27 0.24 0.27 0.25 0.22 0.18 0.15 0.13 0.08 0.05
0.00 0.00 0.00 0.00 0.00 0.00 0.02 0.03 0.02 0.04 0.05 0.03 0.04 0.05 0.06 0.09 0.11 0.13 0.13 0.15 0.16 0.15 0.14 0.18 0.22 0.22 0.20 0.21 0.24 0.25 0.28 0.29 0.32 0.34 0.29 0.30 0.28 0.23 0.20 0.16 0.15 0.10 0.06
0.00 0.00 0.00 0.00 0.00 0.00 0.01 0.03 0.03 0.03 0.03 0.02 0.05 0.07 0.06 0.06 0.06 0.06 0.09 0.14 0.17 0.15 0.13 0.14 0.19 0.23 0.23 0.24 0.28 0.28 0.29 0.31 0.34 0.37 0.31 0.24 0.23 0.21 0.20 0.17 0.15 0.11 0.07
0.00 0.00 0.00 0.00 0.00 0.01 0.01 0.01 0.02 0.02 0.02 0.03 0.03 0.04 0.05 0.05 0.04 0.05 0.07 0.11 0.15 0.16 0.13 0.12 0.15 0.19 0.23 0.23 0.25 0.24 0.24 0.23 0.22 0.23 0.22 0.20 0.19 0.16 0.17 0.16 0.12 0.10 0.07
MSLP
1014.48 1014.38 1014.28 1014.18 1014.11 1014.10 1014.15 1014.25 1014.38 1014.50 1014.57 1014.58 1014.51 1014.40 1014.26 1014.14 1014.09 1014.14 1014.31 1014.59 1014.96 1015.39 1015.82 1016.22 1016.56 1016.82 1017.00 1017.09 1017.12 1017.10 1017.07 1017.04 1017.06 1017.12 1017.26 1017.46 1017.72 1018.02 1018.32 1018.60 1018.82 1018.97 1019.04
1014.22 1014.10 1013.96 1013.85 1013.78 1013.78 1013.85 1013.99 1014.17 1014.36 1014.51 1014.59 1014.59 1014.52 1014.40 1014.27 1014.17 1014.14 1014.21 1014.40 1014.68 1015.05 1015.46 1015.88 1016.27 1016.61 1016.86 1017.03 1017.13 1017.17 1017.18 1017.18 1017.21 1017.29 1017.43 1017.65 1017.91 1018.22 1018.52 1018.80 1019.02 1019.17 1019.25
1014.01 1013.86 1013.71 1013.58 1013.51 1013.52 1013.61 1013.78 1014.00 1014.25 1014.47 1014.63 1014.71 1014.70 1014.61 1014.47 1014.33 1014.22 1014.19 1014.26 1014.44 1014.71 1015.06 1015.46 1015.86 1016.24 1016.56 1016.81 1016.99 1017.11 1017.18 1017.24 1017.30 1017.41 1017.57 1017.78 1018.05 1018.34 1018.64 1018.91 1019.13 1019.28 1019.36
1013.87 1013.70 1013.53 1013.39 1013.31 1013.31 1013.40 1013.58 1013.82 1014.11 1014.39 1014.62 1014.78 1014.83 1014.79 1014.67 1014.50 1014.34 1014.22 1014.17 1014.23 1014.39 1014.65 1014.98 1015.37 1015.76 1016.12 1016.45 1016.71 1016.92 1017.07 1017.20 1017.32 1017.46 1017.64 1017.86 1018.11 1018.38 1018.66 1018.91 1019.11 1019.26 1019.35
1013.81 1013.62 1013.44 1013.28 1013.18 1013.15 1013.21 1013.37 1013.60 1013.90 1014.21 1014.49 1014.70 1014.83 1014.85 1014.77 1014.62 1014.43 1014.25 1014.11 1014.06 1014.11 1014.26 1014.52 1014.85 1015.22 1015.61 1015.98 1016.32 1016.62 1016.86 1017.08 1017.27 1017.46 1017.66 1017.87 1018.11 1018.35 1018.58 1018.80 1018.99 1019.14 1019.24
1013.82 1013.62 1013.42 1013.24 1013.10 1013.03 1013.04 1013.14 1013.33 1013.59 1013.89 1014.19 1014.45 1014.64 1014.73 1014.72 1014.62 1014.44 1014.24 1014.06 1013.93 1013.88 1013.94 1014.10 1014.36 1014.69 1015.08 1015.48 1015.87 1016.25 1016.58 1016.88 1017.15 1017.40 1017.63 1017.84 1018.06 1018.26 1018.46 1018.64 1018.80 1018.95 1019.07
1013.90 1013.68 1013.46 1013.26 1013.08 1012.95 1012.88 1012.90 1013.01 1013.20 1013.46 1013.75 1014.03 1014.27 1014.43 1014.50 1014.47 1014.35 1014.18 1013.99 1013.82 1013.70 1013.68 1013.75 1013.94 1014.21 1014.57 1014.97 1015.40 1015.83 1016.25 1016.63 1016.98 1017.28 1017.55 1017.78 1017.98 1018.16 1018.31 1018.46 1018.60 1018.74 1018.89
1014.04 1013.80 1013.56 1013.33 1013.10 1012.91 1012.76 1012.69 1012.69 1012.79 1012.97 1013.22 1013.49 1013.75 1013.97 1014.12 1014.18 1014.15 1014.04 1013.89 1013.72 1013.57 1013.49 1013.49 1013.59 1013.80 1014.11 1014.49 1014.93 1015.40 1015.87 1016.33 1016.75 1017.12 1017.43 1017.68 1017.89 1018.04 1018.18 1018.30 1018.42 1018.56 1018.72
1014.19 1013.94 1013.69 1013.44 1013.18 1012.93 1012.70 1012.53 1012.43 1012.42 1012.51 1012.68 1012.91 1013.17 1013.43 1013.65 1013.79 1013.85 1013.83 1013.73 1013.60 1013.46 1013.34 1013.29 1013.32 1013.46 1013.70 1014.04 1014.46 1014.94 1015.45 1015.96 1016.45 1016.88 1017.24 1017.54 1017.76 1017.92 1018.05 1018.16 1018.28 1018.42 1018.61
1014.34 1014.08 1013.83 1013.56 1013.29 1013.00 1012.72 1012.46 1012.26 1012.15 1012.13 1012.21 1012.38 1012.61 1012.86 1013.12 1013.33 1013.47 1013.53 1013.52 1013.44 1013.32 1013.20 1013.11 1013.09 1013.15 1013.33 1013.61 1013.99 1014.46 1014.98 1015.52 1016.06 1016.54 1016.97 1017.31 1017.58 1017.77 1017.92 1018.04 1018.17 1018.33 1018.53
1014.46 1014.20 1013.94 1013.68 1013.40 1013.10 1012.78 1012.47 1012.19 1011.98 1011.86 1011.84 1011.92 1012.09 1012.32 1012.58 1012.82 1013.02 1013.15 1013.21 1013.19 1013.12 1013.02 1012.92 1012.85 1012.86 1012.97 1013.18 1013.51 1013.94 1014.45 1015.01 1015.58 1016.11 1016.60 1017.00 1017.32 1017.57 1017.75 1017.91 1018.07 1018.25 1018.48
1014.52 1014.25 1014.01 1013.76 1013.49 1013.19 1012.86 1012.52 1012.19 1011.90 1011.69 1011.57 1011.55 1011.64 1011.80 1012.03 1012.27 1012.50 1012.68 1012.80 1012.85 1012.83 1012.76 1012.67 1012.60 1012.57 1012.62 1012.78 1013.04 1013.42 1013.90 1014.45 1015.02 1015.60 1016.13 1016.60 1016.98 1017.29 1017.54 1017.74 1017.94 1018.16 1018.42
1014.50 1014.24 1014.00 1013.77 1013.52 1013.23 1012.91 1012.55 1012.19 1011.85 1011.55 1011.34 1011.22 1011.21 1011.29 1011.45 1011.66 1011.88 1012.09 1012.26 1012.37 1012.42 1012.41 1012.36 1012.30 1012.26 1012.29 1012.39 1012.61 1012.93 1013.36 1013.88 1014.45 1015.04 1015.61 1016.12 1016.57 1016.95 1017.26 1017.52 1017.78 1018.03 1018.32
1014.42 1014.15 1013.91 1013.69 1013.45 1013.18 1012.87 1012.51 1012.13 1011.75 1011.39 1011.10 1010.88 1010.76 1010.74 1010.82 1010.97 1011.16 1011.38 1011.58 1011.75 1011.88 1011.94 1011.97 1011.96 1011.95 1011.98 1012.06 1012.23 1012.51 1012.89 1013.37 1013.91 1014.50 1015.08 1015.63 1016.13 1016.56 1016.94 1017.26 1017.57 1017.87 1018.19
1014.28 1014.00 1013.76 1013.53 1013.29 1013.02 1012.72 1012.36 1011.97 1011.56 1011.16 1010.79 1010.48 1010.26 1010.14 1010.12 1010.19 1010.34 1010.55 1010.78 1011.01 1011.22 1011.38 1011.50 1011.58 1011.64 1011.70 1011.80 1011.96 1012.20 1012.53 1012.96 1013.47 1014.03 1014.60 1015.17 1015.70 1016.18 1016.61 1016.99 1017.34 1017.68 1018.03
1014.12 1013.82 1013.56 1013.31 1013.05 1012.78 1012.46 1012.10 1011.70 1011.27 1010.83 1010.40 1010.01 1009.70 1009.47 1009.35 1009.34 1009.45 1009.63 1009.89 1010.17 1010.47 1010.74 1010.98 1011.17 1011.33 1011.46 1011.60 1011.77 1012.00 1012.30 1012.69 1013.15 1013.67 1014.23 1014.79 1015.33 1015.84 1016.30 1016.72 1017.11 1017.49 1017.86
1013.98 1013.66 1013.36 1013.07 1012.79 1012.48 1012.15 1011.78 1011.36 1010.91 1010.43 1009.96 1009.50 1009.10 1008.79 1008.58 1008.49 1008.53 1008.69 1008.95 1009.28 1009.65 1010.03 1010.39 1010.71 1010.98 1011.22 1011.42 1011.64 1011.88 1012.17 1012.52 1012.95 1013.43 1013.96 1014.51 1015.05 1015.57 1016.05 1016.50 1016.92 1017.32 1017.72
1013.88 1013.54 1013.20 1012.87 1012.54 1012.20 1011.84 1011.45 1011.02 1010.55 1010.05 1009.53 1009.02 1008.56 1008.16 1007.86 1007.69 1007.67 1007.78 1008.03 1008.39 1008.83 1009.30 1009.77 1010.20 1010.59 1010.93 1011.22 1011.49 1011.77 1012.06 1012.41 1012.81 1013.27 1013.77 1014.30 1014.83 1015.36 1015.86 1016.33 1016.77 1017.20 1017.61
1013.84 1013.47 1013.10 1012.72 1012.35 1011.98 1011.59 1011.18 1010.73 1010.25 1009.74 1009.19 1008.65 1008.13 1007.66 1007.29 1007.04 1006.94 1007.00 1007.22 1007.58 1008.04 1008.56 1009.11 1009.63 1010.12 1010.55 1010.93 1011.26 1011.58 1011.90 1012.26 1012.66 1013.11 1013.60 1014.12 1014.66 1015.19 1015.71 1016.20 1016.67 1017.12 1017.55
1013.83 1013.45 1013.05 1012.64 1012.24 1011.84 1011.43 1011.01 1010.56 1010.08 1009.56 1009.00 1008.43 1007.87 1007.35 1006.91 1006.59 1006.42 1006.41 1006.57 1006.89 1007.33 1007.86 1008.44 1009.02 1009.56 1010.06 1010.50 1010.89 1011.26 1011.62 1012.00 1012.41 1012.88 1013.38 1013.92 1014.48 1015.04 1015.58 1016.10 1016.60 1017.08 1017.53
1013.82 1013.43 1013.02 1012.61 1012.19 1011.78 1011.36 1010.94 1010.50 1010.03 1009.52 1008.97 1008.40 1007.82 1007.26 1006.77 1006.39 1006.14 1006.05 1006.14 1006.38 1006.77 1007.26 1007.80 1008.37 1008.93 1009.45 1009.92 1010.35 1010.76 1011.16 1011.58 1012.03 1012.53 1013.08 1013.65 1014.25 1014.86 1015.45 1016.02 1016.55 1017.06 1017.55
1013.78 1013.40 1012.99 1012.58 1012.16 1011.76 1011.36 1010.96 1010.54 1010.09 1009.61 1009.08 1008.52 1007.94 1007.37 1006.85 1006.42 1006.11 1005.94 1005.94 1006.09 1006.38 1006.78 1007.25 1007.76 1008.28 1008.77 1009.24 1009.68 1010.11 1010.55 1011.01 1011.52 1012.07 1012.67 1013.31 1013.98 1014.64 1015.30 1015.92 1016.52 1017.07 1017.60
1013.65 1013.29 1012.90 1012.51 1012.12 1011.74 1011.37 1010.99 1010.61 1010.20 1009.75 1009.26 1008.73 1008.18 1007.62 1007.10 1006.64 1006.29 1006.06 1005.97 1006.02 1006.19 1006.48 1006.84 1007.25 1007.68 1008.11 1008.54 1008.96 1009.40 1009.86 1010.36 1010.92 1011.54 1012.21 1012.92 1013.66 1014.40 1015.13 1015.83 1016.48 1017.09 1017.66
1013.44 1013.10 1012.75 1012.39 1012.03 1011.68 1011.34 1011.00 1010.66 1010.28 1009.88 1009.43 1008.95 1008.45 1007.93 1007.44 1006.99 1006.62 1006.35 1006.19 1006.15 1006.22 1006.38 1006.62 1006.90 1007.22 1007.56 1007.92 1008.31 1008.73 1009.20 1009.73 1010.34 1011.01 1011.75 1012.54 1013.35 1014.17 1014.97 1015.74 1016.45 1017.11 1017.72
1013.14 1012.84 1012.52 1012.20 1011.88 1011.57 1011.26 1010.96 1010.64 1010.31 1009.94 1009.55 1009.13 1008.68 1008.23 1007.79 1007.38 1007.02 1006.74 1006.55 1006.44 1006.42 1006.47 1006.59 1006.76 1006.97 1007.21 1007.50 1007.83 1008.22 1008.68 1009.23 1009.87 1010.59 1011.38 1012.23 1013.10 1013.98 1014.84 1015.65 1016.42 1017.12 1017.76
1012.78 1012.53 1012.26 1011.98 1011.70 1011.42 1011.14 1010.86 1010.57 1010.26 1009.94 1009.59 1009.22 1008.85 1008.46 1008.09 1007.74 1007.43 1007.17 1006.97 1006.83 1006.75 1006.73 1006.75 1006.82 1006.93 1007.09 1007.30 1007.58 1007.95 1008.40 1008.95 1009.60 1010.34 1011.16 1012.03 1012.94 1013.85 1014.73 1015.58 1016.37 1017.09 1017.75
Thickness
5736 5738 5740 5742 5744 5745 5747 5749 5751 5755 5757 5760 5762 5764 5765 5765 5764 5763 5762 5758 5756 5756 5756 5755 5755 5755 5754 5755 5755 5755 5755 5755 5755 5754 5754 5753 5752 5751 5750 5749 5749 5748 5747
5731 5734 5736 5739 5741 5742 5744 5745 5747 5750 5751 5754 5757 5760 5762 5764 5763 5762 5762 5760 5757 5756 5756 5755 5755 5755 5754 5754 5754 5754 5754 5754 5754 5754 5753 5752 5751 5750 5749 5748 5747 5746 5745
5725 5728 5731 5735 5737 5738 5740 5742 5744 5744 5747 5749 5751 5755 5758 5760 5762 5763 5763 5762 5761 5757 5756 5755 5755 5754 5754 5754 5754 5754 5753 5753 5753 5753 5752 5751 5750 5749 5748 5747 5746 5744 5743
5716 5720 5724 5729 5732 5734 5735 5737 5739 5739 5741 5743 5746 5750 5753 5755 5757 5760 5762 5762 5762 5762 5757 5755 5754 5754 5754 5753 5753 5753 5753 5752 5752 5751 5751 5750 5749 5748 5746 5745 5744 5743 5742
5708 5712 5716 5720 5725 5728 5731 5733 5735 5736 5736 5738 5741 5744 5748 5750 5753 5756 5760 5762 5763 5761 5761 5756 5754 5753 5753 5752 5752 5752 5752 5751 5751 5750 5749 5748 5747 5746 5745 5744 5743 5741 5740
5699 5703 5708 5713 5717 5720 5724 5727 5728 5730 5732 5734 5736 5739 5741 5744 5747 5751 5755 5759 5762 5762 5761 5760 5755 5753 5752 5751 5751 5751 5751 5751 5750 5749 5748 5747 5746 5745 5743 5742 5741 5740 5739
5691 5696 5700 5705 5708 5712 5716 5720 5722 5724 5726 5730 5729 5730 5733 5738 5741 5745 5749 5753 5757 5759 5759 5759 5758 5757 5754 5751 5750 5750 5750 5749 5749 5748 5747 5746 5745 5743 5742 5741 5740 5738 5737
5684 5688 5692 5696 5700 5703 5707 5712 5714 5716 5720 5723 5723 5721 5721 5726 5733 5738 5742 5745 5751 5755 5756 5757 5758 5756 5756 5754 5752 5749 5748 5748 5748 5747 5746 5745 5743 5742 5741 5739 5738 5737 5735
5676 5680 5684 5688 5692 5696 5700 5704 5707 5708 5711 5715 5719 5718 5717 5720 5726 5730 5735 5739 5743 5749 5751 5754 5756 5756 5755 5754 5753 5748 5747 5746 5746 5745 5744 5743 5742 5740 5739 5737 5736 5735 5733
5671 5673 5676 5680 5684 5688 5692 5696 5701 5703 5704 5706 5711 5715 5719 5722 5718 5719 5725 5732 5736 5740 5744 5749 5752 5755 5754 5752 5751 5749 5746 5745 5744 5743 5743 5741 5740 5738 5737 5735 5734 5732 5731
5666 5668 5671 5674 5677 5681 5684 5688 5692 5695 5698 5700 5703 5707 5710 5714 5717 5717 5717 5721 5726 5733 5737 5741 5746 5749 5751 5750 5749 5747 5744 5742 5741 5741 5740 5739 5738 5736 5735 5733 5731 5729 5728
5661 5663 5664 5667 5671 5674 5677 5680 5684 5687 5690 5694 5697 5701 5704 5707 5711 5713 5715 5717 5718 5723 5728 5733 5738 5742 5745 5746 5745 5744 5741 5739 5738 5738 5737 5736 5735 5734 5732 5730 5728 5726 5725
5656 5657 5659 5661 5665 5667 5670 5673 5677 5681 5684 5687 5690 5695 5700 5704 5710 5711 5711 5712 5713 5716 5720 5725 5730 5734 5737 5739 5741 5739 5737 5736 5735 5734 5734 5733 5732 5731 5729 5727 5725 5723 5722
5652 5652 5654 5656 5658 5661 5664 5667 5670 5673 5678 5681 5685 5689 5693 5698 5703 5705 5707 5708 5707 5708 5711 5718 5724 5728 5730 5733 5736 5734 5734 5732 5731 5731 5730 5730 5728 5727 5725 5724 5722 5720 5718
5649 5650 5651 5652 5654 5655 5658 5661 5664 5667 5671 5675 5679 5683 5687 5692 5696 5700 5703 5705 5702 5702 5706 5713 5717 5722 5724 5726 5729 5729 5731 5730 5728 5727 5726 5726 5724 5723 5721 5720 5718 5716 5714
5647 5647 5648 5650 5651 5652 5654 5655 5658 5661 5664 5668 5672 5676 5680 5685 5690 5694 5697 5700 5701 5702 5703 5710 5712 5716 5718 5721 5722 5724 5726 5726 5724 5724 5723 5722 5720 5719 5717 5715 5713 5711 5709
5647 5646 5645 5646 5647 5648 5649 5650 5652 5655 5658 5662 5666 5670 5674 5680 5683 5687 5690 5693 5696 5698 5698 5703 5706 5709 5711 5714 5716 5717 5719 5720 5720 5719 5719 5718 5716 5715 5712 5710 5708 5706 5704
5645 5644 5643 5642 5642 5642 5643 5644 5646 5649 5652 5655 5659 5662 5667 5672 5676 5680 5683 5687 5690 5694 5695 5695 5698 5701 5704 5708 5710 5711 5713 5714 5716 5715 5714 5713 5711 5709 5707 5705 5703 5700 5698
5644 5643 5641 5639 5638 5638 5638 5639 5642 5643 5646 5649 5651 5654 5659 5663 5667 5671 5675 5680 5684 5687 5689 5690 5692 5694 5697 5700 5702 5704 5706 5708 5709 5709 5708 5707 5705 5703 5701 5699 5697 5694 5692
5642 5640 5638 5636 5635 5634 5634 5635 5636 5638 5640 5643 5645 5648 5652 5656 5660 5663 5667 5672 5676 5679 5681 5683 5685 5687 5690 5693 5695 5696 5698 5700 5702 5703 5702 5701 5699 5696 5695 5693 5691 5688 5686
5642 5638 5635 5633 5631 5629 5627 5626 5628 5631 5634 5637 5640 5643 5646 5648 5652 5655 5659 5664 5668 5671 5674 5675 5678 5681 5683 5686 5689 5692 5692 5693 5693 5696 5695 5694 5692 5690 5687 5685 5683 5681 5679
5641 5637 5633 5630 5626 5624 5619 5617 5618 5624 5628 5630 5633 5637 5640 5643 5645 5648 5651 5655 5660 5664 5668 5670 5673 5676 5679 5683 5684 5685 5686 5685 5685 5688 5688 5686 5685 5683 5681 5679 5676 5674 5672
5640 5635 5631 5628 5624 5620 5614 5613 5613 5616 5619 5622 5626 5629 5633 5636 5638 5643 5645 5648 5653 5657 5662 5667 5669 5673 5677 5680 5680 5680 5681 5682 5682 5684 5681 5676 5676 5675 5673 5672 5669 5667 5665
5641 5636 5630 5626 5622 5619 5612 5609 5609 5612 5614 5616 5619 5622 5625 5628 5631 5635 5640 5644 5648 5652 5657 5661 5667 5670 5673 5675 5677 5678 5677 5675 5674 5674 5675 5670 5667 5665 5664 5662 5661 5659 5656
5642 5637 5632 5627 5623 5620 5612 5608 5606 5610 5610 5612 5614 5617 5619 5623 5624 5627 5633 5637 5641 5645 5648 5653 5658 5663 5666 5669 5670 5669 5669 5668 5666 5664 5664 5664 5659 5656 5654 5653 5651 5650 5648
5643 5639 5635 5630 5625 5621 5613 5608 5605 5609 5608 5608 5610 5613 5614 5616 5619 5623 5629 5633 5636 5640 5645 5648 5651 5655 5659 5662 5664 5666 5666 5665 5662 5657 5657 5657 5653 5650 5644 5642 5643 5642 5640